When you browse on this site, cookies collect data to enhance your experience and personalize the content and advertising you see.
Visit our Privacy Policy to learn more. By continuing to use the site, you agree to this use of cookies and data.

Hourly Weather Puerto Tejada

Today, 8 August, Saturday

Time Temperature Precipitation Wind Pressure Humidity
00:00 +23°C° 0 mm 1 mps 679 mmHg 78%
01:00 +22°C° 0 mm 1 mps 679 mmHg 78%
02:00 +22°C° 0 mm 1 mps 679 mmHg 79%
03:00 +22°C° 0 mm 1 mps 678 mmHg 79%
04:00 +20°C° 0 mm 0 mps 678 mmHg 80%
05:00 +20°C° 0 mm 0 mps 678 mmHg 80%
06:00 +20°C° 0 mm 0 mps 679 mmHg 80%
07:00 +21°C° 0 mm 0 mps 679 mmHg 78%
08:00 +23°C° 0 mm 0 mps 680 mmHg 70%
09:00 +27°C° 0 mm 1 mps 680 mmHg 63%
10:00 +29°C° 0 mm 1 mps 681 mmHg 56%
11:00 +31°C° 0 mm 1 mps 681 mmHg 51%
12:00 +32°C° 0 mm 1 mps 680 mmHg 46%
13:00 +34°C° 0 mm 1 mps 680 mmHg 41%
14:00 +33°C° 0.1 mm 1 mps 680 mmHg 44%
15:00 +33°C° 0.1 mm 1 mps 679 mmHg 47%
16:00 +32°C° 0.1 mm 1 mps 678 mmHg 50%
17:00 +30°C° 0.1 mm 1 mps 678 mmHg 58%
18:00 +28°C° 0.1 mm 1 mps 678 mmHg 66%
19:00 +26°C° 0.1 mm 1 mps 678 mmHg 74%
20:00 +25°C° 0.1 mm 1 mps 679 mmHg 74%
21:00 +25°C° 0.1 mm 1 mps 680 mmHg 74%
22:00 +24°C° 0.1 mm 1 mps 680 mmHg 74%
23:00 +24°C° 0.1 mm 1 mps 680 mmHg 74%

Tomorrow, 9 August, Sunday

Time Temperature Precipitation Wind Pressure Humidity
00:00 +23°C° 0.1 mm 1 mps 680 mmHg 75%
01:00 +23°C° 0.1 mm 1 mps 679 mmHg 75%
02:00 +22°C° 0 mm 1 mps 679 mmHg 76%
03:00 +22°C° 0 mm 1 mps 679 mmHg 77%
04:00 +20°C° 0 mm 0 mps 678 mmHg 78%
05:00 +20°C° 0 mm 0 mps 678 mmHg 77%
06:00 +20°C° 0 mm 0 mps 679 mmHg 77%
07:00 +21°C° 0 mm 0 mps 679 mmHg 77%
08:00 +25°C° 0 mm 1 mps 679 mmHg 69%
09:00 +27°C° 0 mm 1 mps 680 mmHg 61%
10:00 +30°C° 0 mm 1 mps 681 mmHg 54%
11:00 +31°C° 0 mm 1 mps 680 mmHg 50%
12:00 +32°C° 0 mm 1 mps 680 mmHg 46%
13:00 +34°C° 0 mm 1 mps 680 mmHg 43%
14:00 +33°C° 0.1 mm 1 mps 679 mmHg 45%
15:00 +33°C° 0.1 mm 1 mps 679 mmHg 47%
16:00 +32°C° 0.1 mm 1 mps 678 mmHg 49%
17:00 +30°C° 0.3 mm 1 mps 678 mmHg 59%
18:00 +28°C° 0.3 mm 1 mps 678 mmHg 69%
19:00 +25°C° 0.3 mm 1 mps 678 mmHg 79%
20:00 +25°C° 0.4 mm 1 mps 678 mmHg 80%
21:00 +24°C° 0.4 mm 1 mps 679 mmHg 80%
22:00 +24°C° 0.4 mm 1 mps 679 mmHg 81%
23:00 +23°C° 0.2 mm 1 mps 679 mmHg 82%

Day after tomorrow, 10 August, Monday

Time Temperature Precipitation Wind Pressure Humidity
00:00 +23°C° 0.2 mm 1 mps 679 mmHg 82%
01:00 +22°C° 0.2 mm 1 mps 678 mmHg 82%
02:00 +22°C° 0.1 mm 1 mps 678 mmHg 83%
03:00 +22°C° 0.1 mm 1 mps 678 mmHg 83%
04:00 +20°C° 0.1 mm 0 mps 677 mmHg 84%
05:00 +20°C° 0 mm 0 mps 678 mmHg 83%
06:00 +20°C° 0 mm 0 mps 678 mmHg 82%
07:00 +21°C° 0 mm 0 mps 678 mmHg 81%
08:00 +23°C° 0 mm 0 mps 679 mmHg 73%
09:00 +27°C° 0 mm 1 mps 679 mmHg 66%
10:00 +29°C° 0 mm 1 mps 680 mmHg 58%
11:00 +30°C° 0 mm 1 mps 680 mmHg 54%
12:00 +32°C° 0 mm 1 mps 679 mmHg 50%
13:00 +33°C° 0 mm 1 mps 679 mmHg 46%
14:00 +32°C° 0.2 mm 1 mps 678 mmHg 49%
15:00 +32°C° 0.2 mm 2 mps 677 mmHg 52%
16:00 +31°C° 0.2 mm 2 mps 677 mmHg 56%
17:00 +29°C° 0.6 mm 2 mps 677 mmHg 65%
18:00 +27°C° 0.6 mm 1 mps 676 mmHg 75%
19:00 +24°C° 0.6 mm 1 mps 676 mmHg 85%
20:00 +24°C° 0.2 mm 1 mps 677 mmHg 85%
21:00 +23°C° 0.2 mm 1 mps 678 mmHg 86%
22:00 +23°C° 0.2 mm 1 mps 678 mmHg 86%
23:00 +23°C° 0 mm 1 mps 678 mmHg 87%

11 August, Tuesday

Time Temperature Precipitation Wind Pressure Humidity
00:00 +22°C° 0 mm 1 mps 678 mmHg 87%
01:00 +22°C° 0 mm 1 mps 677 mmHg 87%
02:00 +22°C° 0 mm 1 mps 677 mmHg 87%
03:00 +22°C° 0 mm 1 mps 677 mmHg 87%
04:00 +21°C° 0 mm 1 mps 676 mmHg 88%
05:00 +20°C° 0 mm 0 mps 677 mmHg 86%
06:00 +20°C° 0 mm 0 mps 677 mmHg 85%
07:00 +20°C° 0 mm 0 mps 677 mmHg 83%
08:00 +25°C° 0 mm 1 mps 678 mmHg 77%
09:00 +27°C° 0 mm 1 mps 678 mmHg 71%
10:00 +29°C° 0 mm 1 mps 679 mmHg 65%
11:00 +30°C° 0.1 mm 1 mps 678 mmHg 60%
12:00 +31°C° 0.1 mm 1 mps 678 mmHg 55%
13:00 +33°C° 0.1 mm 1 mps 678 mmHg 50%
14:00 +32°C° 0.3 mm 1 mps 677 mmHg 53%
15:00 +32°C° 0.3 mm 1 mps 676 mmHg 55%
16:00 +31°C° 0.3 mm 1 mps 676 mmHg 58%
17:00 +29°C° 1.1 mm 1 mps 676 mmHg 67%
18:00 +27°C° 1.1 mm 1 mps 676 mmHg 76%
19:00 +24°C° 1.1 mm 1 mps 676 mmHg 86%
20:00 +24°C° 1.1 mm 1 mps 677 mmHg 87%
21:00 +23°C° 1.1 mm 1 mps 677 mmHg 88%
22:00 +23°C° 1.1 mm 1 mps 678 mmHg 89%
23:00 +23°C° 0.4 mm 1 mps 677 mmHg 89%

12 August, Wednesday

Time Temperature Precipitation Wind Pressure Humidity
00:00 +22°C° 0.4 mm 1 mps 677 mmHg 89%
01:00 +22°C° 0.4 mm 1 mps 677 mmHg 90%
02:00 +20°C° 0.2 mm 0 mps 677 mmHg 90%
03:00 +20°C° 0.2 mm 0 mps 676 mmHg 90%
04:00 +19°C° 0.2 mm 0 mps 676 mmHg 90%
05:00 +20°C° 0.2 mm 0 mps 676 mmHg 89%
06:00 +20°C° 0.2 mm 0 mps 677 mmHg 88%
07:00 +20°C° 0.2 mm 0 mps 677 mmHg 87%
08:00 +22°C° 0 mm 0 mps 678 mmHg 81%
09:00 +26°C° 0 mm 1 mps 678 mmHg 75%
10:00 +28°C° 0 mm 1 mps 679 mmHg 68%
11:00 +29°C° 0.3 mm 1 mps 678 mmHg 64%
12:00 +31°C° 0.3 mm 1 mps 678 mmHg 60%
13:00 +32°C° 0.3 mm 1 mps 677 mmHg 55%
14:00 +31°C° 0.9 mm 1 mps 677 mmHg 59%
15:00 +31°C° 0.9 mm 1 mps 676 mmHg 62%
16:00 +30°C° 0.9 mm 2 mps 675 mmHg 65%
17:00 +28°C° 1.7 mm 1 mps 676 mmHg 73%
18:00 +26°C° 1.7 mm 1 mps 676 mmHg 81%
19:00 +24°C° 1.7 mm 1 mps 676 mmHg 88%
20:00 +24°C° 1.4 mm 1 mps 677 mmHg 89%
21:00 +23°C° 1.4 mm 1 mps 677 mmHg 89%
22:00 +23°C° 1.4 mm 1 mps 677 mmHg 90%
23:00 +23°C° 1.3 mm 1 mps 677 mmHg 90%

13 August, Thursday

Time Temperature Precipitation Wind Pressure Humidity
00:00 +22°C° 1.3 mm 1 mps 677 mmHg 90%
01:00 +22°C° 1.3 mm 1 mps 676 mmHg 90%
02:00 +22°C° 0.5 mm 1 mps 676 mmHg 91%
03:00 +20°C° 0.5 mm 0 mps 676 mmHg 91%
04:00 +20°C° 0.5 mm 0 mps 676 mmHg 91%
05:00 +20°C° 0.1 mm 0 mps 676 mmHg 90%
06:00 +20°C° 0.1 mm 0 mps 677 mmHg 90%
07:00 +20°C° 0.1 mm 0 mps 677 mmHg 89%
08:00 +22°C° 0 mm 0 mps 678 mmHg 83%
09:00 +26°C° 0 mm 1 mps 678 mmHg 77%
10:00 +28°C° 0 mm 1 mps 679 mmHg 71%
11:00 +29°C° 0.8 mm 1 mps 678 mmHg 69%
12:00 +30°C° 0.8 mm 1 mps 678 mmHg 66%
13:00 +30°C° 0.8 mm 1 mps 678 mmHg 63%
14:00 +29°C° 1.4 mm 1 mps 677 mmHg 68%
15:00 +28°C° 1.4 mm 1 mps 676 mmHg 74%
16:00 +27°C° 1.4 mm 1 mps 675 mmHg 80%
17:00 +26°C° 1.5 mm 1 mps 675 mmHg 82%
18:00 +25°C° 1.5 mm 1 mps 676 mmHg 85%
19:00 +24°C° 1.5 mm 1 mps 676 mmHg 88%
20:00 +24°C° 1.1 mm 1 mps 676 mmHg 89%
21:00 +23°C° 1.1 mm 1 mps 677 mmHg 89%
22:00 +23°C° 1.1 mm 1 mps 677 mmHg 89%
23:00 +22°C° 0.9 mm 1 mps 677 mmHg 89%
Show more